| time (UTC) | temp C | wind direction | speed KPH | gust KPH | rain 1hr cm | rain 24hr cm | rain mn cm | humidity % | barometer mb |
| 20260906110003 | 20 | 153 | 0.0 | 0.0 | 0.00 | 0.00 | 0.00 | 82 | 1015.2 |
| 20260906105503 | 21 | 153 | 0.0 | 0.0 | 0.00 | 0.00 | 0.00 | 82 | 1015.2 |
| 20260906105003 | 21 | 153 | 0.0 | 0.0 | 0.00 | 0.00 | 0.00 | 82 | 1015.3 |
| 20260906104502 | 21 | 153 | 0.0 | 0.0 | 0.00 | 0.00 | 0.00 | 82 | 1015.2 |
| 20260906104002 | 21 | 153 | 0.0 | 0.0 | 0.00 | 0.00 | 0.00 | 81 | 1015.2 |
| 20260906103503 | 21 | 153 | 0.0 | 0.0 | 0.00 | 0.00 | 0.00 | 82 | 1015.2 |
| 20260906103003 | 21 | 153 | 0.0 | 0.0 | 0.00 | 0.00 | 0.00 | 82 | 1015.3 |
| 20260906102503 | 21 | 153 | 0.0 | 0.0 | 0.00 | 0.00 | 0.00 | 82 | 1015.2 |
| 20260906102003 | 21 | 153 | 0.0 | 0.0 | 0.00 | 0.00 | 0.00 | 82 | 1015.2 |
| 20260906101503 | 21 | 153 | 0.0 | 0.0 | 0.00 | 0.00 | 0.00 | 82 | 1015.1 |
| 20260906101003 | 21 | 153 | 0.0 | 0.0 | 0.00 | 0.00 | 0.00 | 81 | 1015.0 |
| 20260906100503 | 21 | 153 | 0.0 | 0.0 | 0.00 | 0.00 | 0.00 | 82 | 1015.1 |
| 20260906100002 | 21 | 153 | 0.0 | 0.0 | 0.00 | 0.00 | 0.00 | 81 | 1015.1 |
| 20260906095503 | 21 | 153 | 0.0 | 0.0 | 0.00 | 0.00 | 0.00 | 81 | 1015.0 |
| 20260906094503 | 21 | 153 | 0.0 | 0.0 | 0.00 | 0.00 | 0.00 | 81 | 1015.0 |
| 20260906093502 | 21 | 153 | 0.0 | 0.0 | 0.00 | 0.00 | 0.00 | 81 | 1014.9 |
| 20260906093003 | 21 | 153 | 0.0 | 0.0 | 0.00 | 0.00 | 0.00 | 81 | 1014.9 |
| 20260906092502 | 21 | 153 | 0.0 | 0.0 | 0.00 | 0.00 | 0.00 | 81 | 1015.0 |
| 20260906092003 | 21 | 153 | 0.0 | 0.0 | 0.00 | 0.00 | 0.00 | 81 | 1014.9 |
| 20260906091503 | 21 | 153 | 0.0 | 0.0 | 0.00 | 0.00 | 0.00 | 82 | 1014.9 |
| 20260906091003 | 20 | 153 | 0.0 | 0.0 | 0.00 | 0.00 | 0.00 | 82 | 1014.9 |
| 20260906090003 | 21 | 153 | 1.6 | 4.8 | 0.00 | 0.00 | 0.00 | 82 | 1014.7 |
| 20260906085503 | 21 | 315 | 0.0 | 0.0 | 0.00 | 0.00 | 0.00 | 82 | 1014.4 |
| 20260906085003 | 20 | 315 | 0.0 | 0.0 | 0.00 | 0.00 | 0.00 | 82 | 1014.4 |
| 20260906084003 | 20 | 315 | 0.0 | 0.0 | 0.00 | 0.00 | 0.00 | 82 | 1014.4 |
| 20260906083503 | 20 | 315 | 0.0 | 0.0 | 0.00 | 0.00 | 0.00 | 82 | 1014.4 |
| 20260906083003 | 20 | 315 | 0.0 | 0.0 | 0.00 | 0.00 | 0.00 | 82 | 1014.3 |
| 20260906082503 | 20 | 315 | 0.0 | 0.0 | 0.00 | 0.00 | 0.00 | 82 | 1014.3 |
| 20260906082003 | 20 | 315 | 0.0 | 0.0 | 0.00 | 0.00 | 0.00 | 81 | 1014.2 |
| 20260906081502 | 20 | 315 | 0.0 | 0.0 | 0.00 | 0.00 | 0.00 | 81 | 1014.1 |
| 20260906081003 | 20 | 315 | 0.0 | 0.0 | 0.00 | 0.00 | 0.00 | 81 | 1014.1 |
| 20260906080503 | 20 | 315 | 0.0 | 0.0 | 0.00 | 0.00 | 0.00 | 81 | 1014.2 |
| 20260906080002 | 20 | 315 | 0.0 | 0.0 | 0.00 | 0.00 | 0.00 | 80 | 1014.2 |
| 20260906075502 | 20 | 315 | 0.0 | 0.0 | 0.00 | 0.00 | 0.00 | 80 | 1014.2 |
| 20260906075004 | 20 | 315 | 0.0 | 0.0 | 0.00 | 0.00 | 0.00 | 79 | 1014.1 |
| 20260906074003 | 21 | 315 | 0.0 | 0.0 | 0.00 | 0.00 | 0.00 | 79 | 1014.1 |
| 20260906073503 | 20 | 315 | 0.0 | 0.0 | 0.00 | 0.00 | 0.00 | 79 | 1014.0 |
| 20260906073003 | 21 | 315 | 0.0 | 0.0 | 0.00 | 0.00 | 0.00 | 79 | 1014.0 |
| 20260906072503 | 21 | 315 | 0.0 | 0.0 | 0.00 | 0.00 | 0.00 | 79 | 1014.0 |
| 20260906072003 | 21 | 315 | 0.0 | 0.0 | 0.00 | 0.00 | 0.00 | 79 | 1014.1 |
| 20260906071503 | 21 | 315 | 0.0 | 0.0 | 0.00 | 0.00 | 0.00 | 79 | 1014.2 |
| 20260906071003 | 21 | 315 | 0.0 | 0.0 | 0.00 | 0.00 | 0.00 | 79 | 1014.1 |
| 20260906070503 | 21 | 315 | 0.0 | 0.0 | 0.00 | 0.00 | 0.00 | 78 | 1014.2 |
| 20260906070004 | 21 | 315 | 0.0 | 0.0 | 0.00 | 0.00 | 0.00 | 78 | 1014.4 |
| 20260906065503 | 21 | 315 | 0.0 | 0.0 | 0.00 | 0.00 | 0.00 | 78 | 1014.4 |
| 20260906065003 | 21 | 315 | 0.0 | 0.0 | 0.00 | 0.00 | 0.00 | 78 | 1014.4 |
| 20260906064003 | 21 | 315 | 0.0 | 0.0 | 0.00 | 0.00 | 0.00 | 77 | 1014.4 |
| 20260906063503 | 21 | 315 | 0.0 | 0.0 | 0.00 | 0.00 | 0.00 | 77 | 1014.5 |
| 20260906063003 | 21 | 315 | 0.0 | 0.0 | 0.00 | 0.00 | 0.00 | 76 | 1014.5 |
| 20260906062503 | 21 | 315 | 0.0 | 0.0 | 0.00 | 0.00 | 0.00 | 76 | 1014.7 |
| 20260906062003 | 21 | 315 | 0.0 | 0.0 | 0.00 | 0.00 | 0.00 | 76 | 1014.7 |
| 20260906061503 | 21 | 315 | 0.0 | 0.0 | 0.00 | 0.00 | 0.00 | 76 | 1014.7 |
| 20260906060004 | 21 | 315 | 0.0 | 0.0 | 0.00 | 0.00 | 0.00 | 76 | 1014.7 |
| 20260906055004 | 21 | 315 | 0.0 | 0.0 | 0.00 | 0.00 | 0.00 | 75 | 1014.7 |
| 20260906054003 | 21 | 315 | 0.0 | 0.0 | 0.00 | 0.00 | 0.00 | 75 | 1014.9 |
| 20260906053503 | 21 | 315 | 0.0 | 0.0 | 0.00 | 0.00 | 0.00 | 75 | 1014.9 |
| 20260906053004 | 21 | 315 | 0.0 | 0.0 | 0.00 | 0.00 | 0.00 | 75 | 1015.0 |
| 20260906052503 | 21 | 315 | 0.0 | 0.0 | 0.00 | 0.00 | 0.00 | 74 | 1014.9 |
| 20260906051503 | 22 | 315 | 0.0 | 0.0 | 0.00 | 0.00 | 0.00 | 73 | 1014.8 |
| 20260906050503 | 22 | 315 | 0.0 | 0.0 | 0.00 | 0.00 | 0.00 | 72 | 1014.8 |
| 20260906050004 | 22 | 315 | 0.0 | 0.0 | 0.00 | 0.00 | 0.00 | 72 | 1014.7 |
| 20260906045503 | 22 | 315 | 0.0 | 0.0 | 0.00 | 0.00 | 0.00 | 71 | 1014.7 |
| 20260906044503 | 22 | 315 | 0.0 | 0.0 | 0.00 | 0.00 | 0.00 | 71 | 1014.8 |
| 20260906044003 | 22 | 315 | 0.0 | 0.0 | 0.00 | 0.00 | 0.00 | 71 | 1014.7 |
| 20260906043503 | 22 | 315 | 0.0 | 0.0 | 0.00 | 0.00 | 0.00 | 70 | 1014.5 |
| 20260906043003 | 22 | 315 | 0.0 | 0.0 | 0.00 | 0.00 | 0.00 | 70 | 1014.5 |
| 20260906042503 | 22 | 315 | 0.0 | 0.0 | 0.00 | 0.00 | 0.00 | 69 | 1014.5 |
| 20260906042003 | 22 | 315 | 0.0 | 0.0 | 0.00 | 0.00 | 0.00 | 68 | 1014.7 |
| 20260906041503 | 22 | 315 | 0.0 | 0.0 | 0.00 | 0.00 | 0.00 | 68 | 1014.8 |
| 20260906041004 | 22 | 315 | 0.0 | 0.0 | 0.00 | 0.00 | 0.00 | 68 | 1014.9 |
| 20260906040503 | 22 | 315 | 0.0 | 3.2 | 0.00 | 0.00 | 0.00 | 67 | 1014.8 |
| 20260906040004 | 23 | 312 | 4.8 | 3.2 | 0.00 | 0.00 | 0.00 | 67 | 1014.8 |
| 20260906035504 | 23 | 345 | 1.6 | 3.2 | 0.00 | 0.00 | 0.00 | 66 | 1014.9 |
| 20260906035003 | 23 | 254 | 3.2 | 3.2 | 0.00 | 0.00 | 0.00 | 66 | 1014.9 |
| 20260906034503 | 23 | 295 | 3.2 | 3.2 | 0.00 | 0.00 | 0.00 | 65 | 1015.0 |
| 20260906034003 | 23 | 305 | 1.6 | 3.2 | 0.00 | 0.00 | 0.00 | 65 | 1015.0 |
| 20260906033503 | 23 | 199 | 0.0 | 0.0 | 0.00 | 0.00 | 0.00 | 65 | 1015.1 |
| 20260906033003 | 23 | 199 | 0.0 | 0.0 | 0.00 | 0.00 | 0.00 | 64 | 1015.2 |
| 20260906032003 | 23 | 199 | 0.0 | 0.0 | 0.00 | 0.00 | 0.00 | 63 | 1015.1 |
| 20260906031503 | 23 | 199 | 0.0 | 0.0 | 0.00 | 0.00 | 0.00 | 63 | 1015.1 |
| 20260906031003 | 23 | 199 | 0.0 | 3.2 | 0.00 | 0.00 | 0.00 | 63 | 1015.1 |
| 20260906030503 | 24 | 292 | 6.4 | 8.0 | 0.00 | 0.00 | 0.00 | 62 | 1015.1 |
| 20260906025504 | 24 | 298 | 0.0 | 0.0 | 0.00 | 0.00 | 0.00 | 60 | 1014.9 |
| 20260906024503 | 24 | 298 | 0.0 | 0.0 | 0.00 | 0.00 | 0.00 | 60 | 1014.8 |
| 20260906023504 | 25 | 353 | 0.0 | 0.0 | 0.00 | 0.00 | 0.00 | 59 | 1014.8 |
| 20260906023004 | 25 | 353 | 0.0 | 0.0 | 0.00 | 0.00 | 0.00 | 58 | 1014.7 |
| 20260906022503 | 25 | 353 | 0.0 | 0.0 | 0.00 | 0.00 | 0.00 | 57 | 1014.5 |
| 20260906021503 | 25 | 304 | 1.6 | 8.0 | 0.00 | 0.00 | 0.00 | 54 | 1014.4 |
| 20260906021003 | 25 | 357 | 0.0 | 3.2 | 0.00 | 0.00 | 0.00 | 54 | 1014.5 |
| 20260906020504 | 25 | 322 | 0.0 | 0.0 | 0.00 | 0.00 | 0.00 | 54 | 1014.4 |
| 20260906020004 | 25 | 329 | 6.4 | 9.7 | 0.00 | 0.00 | 0.00 | 54 | 1014.3 |
| 20260906015503 | 25 | 338 | 4.8 | 11.3 | 0.00 | 0.00 | 0.00 | 54 | 1014.2 |
| 20260906015003 | 25 | 359 | 3.2 | 9.7 | 0.00 | 0.00 | 0.00 | 54 | 1014.2 |
| 20260906014503 | 25 | 12 | 3.2 | 12.9 | 0.00 | 0.00 | 0.00 | 54 | 1014.1 |
| 20260906013503 | 25 | 329 | 4.8 | 14.5 | 0.00 | 0.00 | 0.00 | 54 | 1014.1 |
| 20260906013004 | 25 | 338 | 3.2 | 9.7 | 0.00 | 0.00 | 0.00 | 54 | 1014.1 |
| 20260906012503 | 25 | 266 | 3.2 | 4.8 | 0.00 | 0.00 | 0.00 | 54 | 1014.0 |
| 20260906012003 | 25 | 195 | 0.0 | 4.8 | 0.00 | 0.00 | 0.00 | 54 | 1013.9 |
| 20260906011503 | 25 | 263 | 0.0 | 4.8 | 0.00 | 0.00 | 0.00 | 54 | 1013.9 |
| 20260906011003 | 25 | 270 | 1.6 | 3.2 | 0.00 | 0.00 | 0.00 | 54 | 1013.8 |
| 20260906010503 | 25 | 352 | 0.0 | 4.8 | 0.00 | 0.00 | 0.00 | 54 | 1013.8 |
| 20260906010003 | 25 | 162 | 0.0 | 0.0 | 0.00 | 0.00 | 0.00 | 53 | 1013.7 |
| 20260906005504 | 25 | 162 | 0.0 | 3.2 | 0.00 | 0.00 | 0.00 | 53 | 1013.8 |
| 20260906005003 | 25 | 175 | 3.2 | 4.8 | 0.00 | 0.00 | 0.00 | 53 | 1013.8 |
| 20260906004003 | 25 | 270 | 1.6 | 3.2 | 0.00 | 0.00 | 0.00 | 52 | 1013.6 |
| 20260906003504 | 26 | 203 | 1.6 | 9.7 | 0.00 | 0.00 | 0.00 | 52 | 1013.6 |
| 20260906003004 | 26 | 208 | 3.2 | 8.0 | 0.00 | 0.00 | 0.00 | 52 | 1013.5 |
| 20260906002503 | 26 | 149 | 0.0 | 4.8 | 0.00 | 0.00 | 0.00 | 52 | 1013.5 |
| 20260906002005 | 26 | 341 | 3.2 | 3.2 | 0.00 | 0.00 | 0.00 | 51 | 1013.6 |
| 20260906001503 | 26 | 133 | 0.0 | 0.0 | 0.00 | 0.00 | 0.00 | 51 | 1013.4 |
| 20260906001004 | 26 | 169 | 3.2 | 8.0 | 0.00 | 0.00 | 0.00 | 50 | 1013.3 |
| 20260906000504 | 26 | 247 | 3.2 | 9.7 | 0.00 | 0.00 | 0.00 | 50 | 1013.3 |
| 20260906000003 | 26 | 226 | 1.6 | 9.7 | 0.00 | 0.00 | 0.00 | 49 | 1013.1 |
| 20260905235504 | 26 | 126 | 0.0 | 1.6 | 0.00 | 0.00 | 0.00 | 49 | 1013.1 |
| 20260905235003 | 26 | 92 | 0.0 | 3.2 | 0.00 | 0.00 | 0.00 | 49 | 1013.0 |
| 20260905234504 | 26 | 236 | 1.6 | 8.0 | 0.00 | 0.00 | 0.00 | 49 | 1013.0 |
| 20260905234004 | 27 | 298 | 3.2 | 8.0 | 0.00 | 0.00 | 0.00 | 48 | 1013.0 |
| 20260905233504 | 27 | 205 | 3.2 | 9.7 | 0.00 | 0.00 | 0.00 | 48 | 1013.0 |
| 20260905233003 | 27 | 73 | 0.0 | 12.9 | 0.00 | 0.00 | 0.00 | 48 | 1013.1 |
| 20260905232503 | 27 | 218 | 6.4 | 11.3 | 0.00 | 0.00 | 0.00 | 48 | 1013.1 |
| 20260905231004 | 27 | 334 | 1.6 | 11.3 | 0.00 | 0.00 | 0.00 | 47 | 1013.1 |
| 20260905230504 | 27 | 151 | 0.0 | 9.7 | 0.00 | 0.00 | 0.00 | 48 | 1013.1 |
| 20260905230003 | 27 | 234 | 0.0 | 0.0 | 0.00 | 0.00 | 0.00 | 47 | 1013.1 |
| 20260905225503 | 27 | 268 | 1.6 | 9.7 | 0.00 | 0.00 | 0.00 | 47 | 1013.2 |
| 20260905225003 | 27 | 213 | 3.2 | 14.5 | 0.00 | 0.00 | 0.00 | 47 | 1013.2 |
| 20260905224503 | 27 | 202 | 3.2 | 14.5 | 0.00 | 0.00 | 0.00 | 47 | 1013.2 |
| 20260905224004 | 27 | 307 | 1.6 | 4.8 | 0.00 | 0.00 | 0.00 | 47 | 1013.1 |
| 20260905223504 | 28 | 192 | 1.6 | 3.2 | 0.00 | 0.00 | 0.00 | 47 | 1013.2 |
| 20260905223004 | 28 | 137 | 1.6 | 9.7 | 0.00 | 0.00 | 0.00 | 45 | 1013.1 |
| 20260905222503 | 28 | 277 | 3.2 | 8.0 | 0.00 | 0.00 | 0.00 | 46 | 1013.2 |
| 20260905221503 | 28 | 106 | 0.0 | 0.0 | 0.00 | 0.00 | 0.00 | 47 | 1013.1 |
| 20260905221004 | 28 | 106 | 0.0 | 4.8 | 0.00 | 0.00 | 0.00 | 46 | 1013.0 |
| 20260905220003 | 28 | 57 | 0.0 | 9.7 | 0.00 | 0.00 | 0.00 | 46 | 1013.0 |
| 20260905215503 | 28 | 222 | 3.2 | 12.9 | 0.00 | 0.00 | 0.00 | 46 | 1013.0 |
| 20260905215004 | 28 | 239 | 3.2 | 11.3 | 0.00 | 0.00 | 0.00 | 46 | 1013.0 |
| 20260905214503 | 28 | 183 | 0.0 | 8.0 | 0.00 | 0.00 | 0.00 | 46 | 1013.0 |
| 20260905214003 | 29 | 281 | 4.8 | 11.3 | 0.00 | 0.00 | 0.00 | 45 | 1013.0 |
| 20260905213503 | 29 | 102 | 4.8 | 14.5 | 0.00 | 0.00 | 0.00 | 45 | 1012.9 |
| 20260905213003 | 29 | 95 | 1.6 | 8.0 | 0.00 | 0.00 | 0.00 | 45 | 1012.8 |
| 20260905212503 | 29 | 247 | 1.6 | 4.8 | 0.00 | 0.00 | 0.00 | 45 | 1012.6 |
| 20260905212003 | 29 | 34 | 1.6 | 9.7 | 0.00 | 0.00 | 0.00 | 45 | 1012.6 |
| 20260905211504 | 29 | 346 | 8.0 | 11.3 | 0.00 | 0.00 | 0.00 | 44 | 1012.5 |
| 20260905211003 | 29 | 57 | 1.6 | 4.8 | 0.00 | 0.00 | 0.00 | 44 | 1012.5 |
| 20260905210503 | 29 | 155 | 1.6 | 4.8 | 0.00 | 0.00 | 0.00 | 44 | 1012.6 |
| 20260905210003 | 29 | 27 | 8.0 | 12.9 | 0.00 | 0.00 | 0.00 | 44 | 1012.6 |
| 20260905205503 | 29 | 195 | 3.2 | 8.0 | 0.00 | 0.00 | 0.00 | 44 | 1012.5 |
| 20260905205004 | 29 | 144 | 4.8 | 4.8 | 0.00 | 0.00 | 0.00 | 44 | 1012.5 |
| 20260905204503 | 29 | 150 | 3.2 | 4.8 | 0.00 | 0.00 | 0.00 | 43 | 1012.5 |
| 20260905204004 | 29 | 236 | 3.2 | 8.0 | 0.00 | 0.00 | 0.00 | 43 | 1012.6 |
| 20260905203503 | 29 | 196 | 4.8 | 9.7 | 0.00 | 0.00 | 0.00 | 43 | 1012.5 |
| 20260905202004 | 29 | 191 | 8.0 | 11.3 | 0.00 | 0.00 | 0.00 | 41 | 1012.6 |
| 20260905201504 | 29 | 234 | 6.4 | 16.1 | 0.00 | 0.00 | 0.00 | 41 | 1012.5 |
| 20260905200504 | 30 | 313 | 8.0 | 12.9 | 0.00 | 0.00 | 0.00 | 40 | 1012.3 |
| 20260905200004 | 30 | 142 | 4.8 | 11.3 | 0.00 | 0.00 | 0.00 | 40 | 1012.3 |
| 20260905195504 | 30 | 139 | 4.8 | 14.5 | 0.00 | 0.00 | 0.00 | 39 | 1012.2 |
| 20260905195004 | 29 | 223 | 4.8 | 19.3 | 0.00 | 0.00 | 0.00 | 40 | 1012.3 |
| 20260905194504 | 29 | 79 | 11.3 | 19.3 | 0.00 | 0.00 | 0.00 | 40 | 1012.2 |
| 20260905194004 | 29 | 46 | 3.2 | 12.9 | 0.00 | 0.00 | 0.00 | 44 | 1012.2 |
| 20260905193503 | 29 | 304 | 8.0 | 19.3 | 0.00 | 0.00 | 0.00 | 46 | 1012.1 |
| 20260905193004 | 29 | 157 | 4.8 | 11.3 | 0.00 | 0.00 | 0.00 | 47 | 1012.2 |
| 20260905192504 | 28 | 5 | 6.4 | 11.3 | 0.00 | 0.00 | 0.00 | 48 | 1012.4 |
| 20260905192004 | 28 | 132 | 4.8 | 16.1 | 0.00 | 0.00 | 0.00 | 47 | 1012.5 |
| 20260905191504 | 28 | 54 | 8.0 | 16.1 | 0.00 | 0.00 | 0.00 | 48 | 1012.5 |
| 20260905191004 | 28 | 157 | 3.2 | 16.1 | 0.00 | 0.00 | 0.00 | 48 | 1012.6 |
| 20260905190504 | 28 | 343 | 3.2 | 11.3 | 0.00 | 0.00 | 0.00 | 50 | 1012.5 |
| 20260905185504 | 28 | 151 | 4.8 | 14.5 | 0.00 | 0.00 | 0.00 | 51 | 1013.1 |
| 20260905185004 | 28 | 64 | 4.8 | 16.1 | 0.00 | 0.00 | 0.00 | 51 | 1013.3 |
| 20260905184503 | 28 | 248 | 9.7 | 19.3 | 0.00 | 0.00 | 0.00 | 53 | 1013.5 |
| 20260905184004 | 27 | 169 | 6.4 | 16.1 | 0.00 | 0.00 | 0.00 | 52 | 1013.7 |
| 20260905183004 | 27 | 198 | 14.5 | 24.1 | 0.00 | 0.00 | 0.00 | 52 | 1013.8 |
| 20260905182503 | 27 | 308 | 19.3 | 35.4 | 0.00 | 0.00 | 0.00 | 51 | 1014.0 |
| 20260905182004 | 27 | 225 | 16.1 | 20.9 | 0.00 | 0.00 | 0.00 | 52 | 1014.0 |
| 20260905181504 | 27 | 208 | 11.3 | 33.8 | 0.00 | 0.00 | 0.00 | 52 | 1014.0 |
| 20260905181004 | 27 | 306 | 14.5 | 24.1 | 0.00 | 0.00 | 0.00 | 53 | 1013.9 |
| 20260905180504 | 27 | 323 | 16.1 | 24.1 | 0.00 | 0.00 | 0.00 | 51 | 1014.1 |
| 20260905180004 | 27 | 311 | 6.4 | 14.5 | 0.00 | 0.00 | 0.00 | 51 | 1014.0 |
| 20260905175504 | 27 | 320 | 11.3 | 24.1 | 0.00 | 0.00 | 0.00 | 51 | 1013.8 |
| 20260905174502 | 28 | 324 | 3.2 | 9.7 | 0.00 | 0.00 | 0.00 | 51 | 1013.9 |
| 20260905174002 | 28 | 190 | 4.8 | 12.9 | 0.00 | 0.00 | 0.00 | 50 | 1014.0 |
| 20260905173502 | 28 | 43 | 11.3 | 16.1 | 0.00 | 0.00 | 0.00 | 49 | 1014.1 |
| 20260905173002 | 28 | 184 | 1.6 | 9.7 | 0.00 | 0.00 | 0.00 | 50 | 1013.7 |
| 20260905171502 | 28 | 193 | 11.3 | 19.3 | 0.00 | 0.00 | 0.00 | 51 | 1014.0 |
| 20260905171003 | 27 | 215 | 14.5 | 27.4 | 0.00 | 0.00 | 0.00 | 50 | 1014.1 |
| 20260905170503 | 28 | 228 | 9.7 | 19.3 | 0.00 | 0.00 | 0.00 | 51 | 1014.1 |
| 20260905170003 | 28 | 247 | 12.9 | 19.3 | 0.00 | 0.00 | 0.00 | 51 | 1014.5 |
| 20260905165503 | 28 | 268 | 11.3 | 16.1 | 0.00 | 0.00 | 0.00 | 51 | 1014.5 |
| 20260905165002 | 28 | 294 | 14.5 | 22.5 | 0.00 | 0.00 | 0.00 | 50 | 1014.7 |
| 20260905164502 | 28 | 240 | 3.2 | 16.1 | 0.00 | 0.00 | 0.00 | 51 | 1014.8 |
| 20260905164003 | 28 | 234 | 4.8 | 12.9 | 0.00 | 0.00 | 0.00 | 52 | 1014.9 |
| 20260905163502 | 28 | 206 | 8.0 | 14.5 | 0.00 | 0.00 | 0.00 | 52 | 1014.8 |
| 20260905162503 | 27 | 204 | 8.0 | 14.5 | 0.00 | 0.00 | 0.00 | 53 | 1015.2 |
| 20260905162003 | 27 | 193 | 6.4 | 14.5 | 0.00 | 0.00 | 0.00 | 53 | 1015.2 |
| 20260905161502 | 28 | 198 | 9.7 | 12.9 | 0.00 | 0.00 | 0.00 | 52 | 1015.3 |
| 20260905161002 | 27 | 326 | 6.4 | 12.9 | 0.00 | 0.00 | 0.00 | 53 | 1015.2 |
| 20260905160503 | 27 | 85 | 1.6 | 11.3 | 0.00 | 0.00 | 0.00 | 53 | 1015.4 |
| 20260905160002 | 27 | 38 | 3.2 | 12.9 | 0.00 | 0.00 | 0.00 | 53 | 1015.5 |
| 20260905155003 | 27 | 63 | 8.0 | 14.5 | 0.00 | 0.00 | 0.00 | 56 | 1015.6 |
| 20260905154502 | 27 | 89 | 1.6 | 8.0 | 0.00 | 0.00 | 0.00 | 57 | 1015.7 |
| 20260905154003 | 27 | 224 | 8.0 | 11.3 | 0.00 | 0.00 | 0.00 | 59 | 1015.8 |
| 20260905153503 | 27 | 303 | 6.4 | 12.9 | 0.00 | 0.00 | 0.00 | 60 | 1015.9 |
| 20260905153002 | 26 | 66 | 1.6 | 9.7 | 0.00 | 0.00 | 0.00 | 59 | 1015.9 |
| 20260905152503 | 27 | 113 | 4.8 | 9.7 | 0.00 | 0.00 | 0.00 | 59 | 1015.9 |
| 20260905152002 | 27 | 102 | 4.8 | 9.7 | 0.00 | 0.00 | 0.00 | 59 | 1015.8 |
| 20260905151003 | 27 | 84 | 0.0 | 22.5 | 0.00 | 0.00 | 0.00 | 60 | 1015.9 |
| 20260905150503 | 27 | 98 | 3.2 | 9.7 | 0.00 | 0.00 | 0.00 | 60 | 1015.8 |
| 20260905150003 | 27 | 83 | 1.6 | 9.7 | 0.00 | 0.00 | 0.00 | 60 | 1015.6 |
| 20260905145503 | 27 | 326 | 0.0 | 4.8 | 0.00 | 0.00 | 0.00 | 60 | 1015.5 |
| 20260905145002 | 27 | 271 | 1.6 | 4.8 | 0.00 | 0.00 | 0.00 | 60 | 1015.4 |
| 20260905144003 | 27 | 240 | 8.0 | 14.5 | 0.00 | 0.00 | 0.00 | 58 | 1015.3 |
| 20260905143503 | 27 | 260 | 0.0 | 9.7 | 0.00 | 0.00 | 0.00 | 59 | 1015.3 |
| 20260905143003 | 27 | 163 | 4.8 | 12.9 | 0.00 | 0.00 | 0.00 | 58 | 1015.4 |
| 20260905142503 | 27 | 223 | 8.0 | 14.5 | 0.00 | 0.00 | 0.00 | 57 | 1015.4 |
| 20260905142003 | 27 | 215 | 11.3 | 19.3 | 0.00 | 0.00 | 0.00 | 57 | 1015.3 |
| 20260905141502 | 27 | 203 | 9.7 | 20.9 | 0.00 | 0.00 | 0.00 | 58 | 1015.3 |
| 20260905141003 | 27 | 213 | 4.8 | 12.9 | 0.00 | 0.00 | 0.00 | 58 | 1015.3 |
| 20260905140503 | 27 | 110 | 4.8 | 14.5 | 0.00 | 0.00 | 0.00 | 58 | 1015.1 |
| 20260905140002 | 27 | 348 | 9.7 | 19.3 | 0.00 | 0.00 | 0.00 | 58 | 1015.2 |
| 20260905134502 | 26 | 335 | 8.0 | 14.5 | 0.00 | 0.00 | 0.00 | 66 | 1015.3 |
| 20260905134002 | 25 | 66 | 0.0 | 8.0 | 0.00 | 0.00 | 0.00 | 68 | 1015.3 |
| 20260905133503 | 25 | 71 | 3.2 | 9.7 | 0.00 | 0.00 | 0.00 | 68 | 1015.2 |
| 20260905133003 | 25 | 229 | 3.2 | 19.3 | 0.00 | 0.00 | 0.00 | 68 | 1015.1 |
| 20260905132502 | 25 | 193 | 6.4 | 11.3 | 0.00 | 0.00 | 0.00 | 69 | 1015.0 |
| 20260905132002 | 25 | 66 | 3.2 | 11.3 | 0.00 | 0.00 | 0.00 | 69 | 1015.0 |
| 20260905130502 | 24 | 235 | 6.4 | 11.3 | 0.00 | 0.00 | 0.00 | 72 | 1014.9 |
| 20260905130003 | 23 | 139 | 4.8 | 14.5 | 0.00 | 0.00 | 0.00 | 73 | 1014.9 |
| 20260905125503 | 23 | 295 | 9.7 | 14.5 | 0.00 | 0.00 | 0.00 | 75 | 1015.0 |
| 20260905125003 | 22 | 358 | 3.2 | 8.0 | 0.00 | 0.00 | 0.00 | 78 | 1015.0 |
| 20260905124503 | 22 | 47 | 4.8 | 4.8 | 0.00 | 0.00 | 0.00 | 79 | 1014.9 |
| 20260905124003 | 22 | 261 | 0.0 | 0.0 | 0.00 | 0.00 | 0.00 | 79 | 1015.0 |
| 20260905123003 | 22 | 75 | 0.0 | 1.6 | 0.00 | 0.00 | 0.00 | 80 | 1015.0 |
| 20260905122503 | 21 | 85 | 1.6 | 4.8 | 0.00 | 0.00 | 0.00 | 81 | 1015.1 |
| 20260905122003 | 21 | 81 | 4.8 | 4.8 | 0.00 | 0.00 | 0.00 | 81 | 1015.0 |
| 20260905121503 | 21 | 27 | 1.6 | 9.7 | 0.00 | 0.00 | 0.00 | 81 | 1015.0 |
| 20260905121003 | 21 | 45 | 0.0 | 0.0 | 0.00 | 0.00 | 0.00 | 81 | 1015.0 |
| 20260905120002 | 21 | 137 | 4.8 | 11.3 | 0.00 | 0.00 | 0.00 | 81 | 1015.1 |
| 20260905115503 | 21 | 74 | 3.2 | 4.8 | 0.00 | 0.00 | 0.00 | 82 | 1015.0 |
| 20260905115003 | 21 | 343 | 1.6 | 9.7 | 0.00 | 0.00 | 0.00 | 82 | 1014.9 |
| 20260905114503 | 21 | 264 | 0.0 | 0.0 | 0.00 | 0.00 | 0.00 | 82 | 1014.8 |
| 20260905114003 | 21 | 264 | 0.0 | 0.0 | 0.00 | 0.00 | 0.00 | 81 | 1014.9 |
| 20260905113503 | 21 | 264 | 0.0 | 0.0 | 0.00 | 0.00 | 0.00 | 81 | 1014.8 |
| 20260905113002 | 20 | 264 | 0.0 | 0.0 | 0.00 | 0.00 | 0.00 | 81 | 1014.8 |
| 20260905111503 | 20 | 264 | 0.0 | 0.0 | 0.00 | 0.00 | 0.00 | 81 | 1014.8 |